date,time,SUV Intensity [MED/Hr],UV Index,Daily total [MED],Since Last [MED]
06/06/2023,00:02:38,-0.000,0.0,0.0,0.0
06/06/2023,00:03:38,0.000,0.0,0.0,0.0
06/06/2023,00:04:37,0.000,0.0,0.0,0.0
06/06/2023,00:05:38,-0.000,0.0,0.0,0.0
06/06/2023,00:06:38,-0.001,0.0,0.0,0.0
06/06/2023,00:07:38,0.000,0.0,0.0,0.0
06/06/2023,00:08:38,-0.001,0.0,0.0,0.0
06/06/2023,00:09:38,-0.000,0.0,0.0,0.0
06/06/2023,00:10:38,-0.001,0.0,0.0,0.0
06/06/2023,00:11:38,-0.000,0.0,0.0,0.0
06/06/2023,00:12:38,0.001,0.0,0.0,0.0
06/06/2023,00:13:38,0.000,0.0,0.0,0.0
06/06/2023,00:14:38,0.001,0.0,0.0,0.0
06/06/2023,00:15:37,0.001,0.0,0.0,0.0
06/06/2023,00:16:38,-0.000,0.0,0.0,0.0
06/06/2023,00:17:38,0.000,0.0,0.0,0.0
06/06/2023,00:18:38,0.001,0.0,0.0,0.0
06/06/2023,00:19:38,0.000,0.0,0.0,0.0
06/06/2023,00:20:38,-0.000,0.0,0.0,0.0
06/06/2023,00:21:37,0.001,0.0,0.0,0.0
06/06/2023,00:22:38,0.000,0.0,0.0,0.0
06/06/2023,00:23:38,-0.001,0.0,0.0,0.0
06/06/2023,00:24:38,0.000,0.0,0.0,0.0
06/06/2023,00:25:41,-0.000,0.0,0.0,0.0
06/06/2023,00:26:39,0.000,0.0,0.0,0.0
06/06/2023,00:27:38,0.000,0.0,0.0,0.0
06/06/2023,00:28:38,-0.001,0.0,0.0,0.0
06/06/2023,00:29:38,0.000,0.0,0.0,0.0
06/06/2023,00:30:38,0.000,0.0,0.0,0.0
06/06/2023,00:31:38,0.000,0.0,0.0,0.0
06/06/2023,00:32:38,0.000,0.0,0.0,0.0
06/06/2023,00:33:38,0.000,0.0,0.0,0.0
06/06/2023,00:34:38,0.000,0.0,0.0,0.0
06/06/2023,00:35:38,0.000,0.0,0.0,0.0
06/06/2023,00:36:38,0.000,0.0,0.0,0.0
06/06/2023,00:37:38,0.000,0.0,0.0,0.0
06/06/2023,00:38:38,-0.001,0.0,0.0,0.0
06/06/2023,00:39:38,-0.000,0.0,0.0,0.0
06/06/2023,00:40:38,0.000,0.0,0.0,0.0
06/06/2023,00:41:38,0.000,0.0,0.0,0.0
06/06/2023,00:42:38,0.000,0.0,0.0,0.0
06/06/2023,00:43:38,0.000,0.0,0.0,0.0
06/06/2023,00:44:38,-0.001,0.0,0.0,0.0
06/06/2023,00:45:38,0.000,0.0,0.0,0.0
06/06/2023,00:46:38,0.001,0.0,0.0,0.0
06/06/2023,00:47:38,-0.000,0.0,0.0,0.0
06/06/2023,00:48:37,0.000,0.0,0.0,0.0
06/06/2023,00:49:38,0.000,0.0,0.0,0.0
06/06/2023,00:50:38,-0.000,0.0,0.0,0.0
06/06/2023,00:51:38,0.000,0.0,0.0,0.0
06/06/2023,00:52:38,0.000,0.0,0.0,0.0
06/06/2023,00:53:38,0.000,0.0,0.0,0.0
06/06/2023,00:54:39,0.001,0.0,0.0,0.0
06/06/2023,00:55:38,0.001,0.0,0.0,0.0
06/06/2023,00:56:38,0.000,0.0,0.0,0.0
06/06/2023,00:57:38,0.000,0.0,0.0,0.0
06/06/2023,00:58:38,-0.001,0.0,0.0,0.0
06/06/2023,00:59:38,0.000,0.0,0.0,0.0
06/06/2023,01:00:38,0.000,0.0,0.0,0.0
06/06/2023,01:01:38,0.000,0.0,0.0,0.0
06/06/2023,01:02:38,-0.001,0.0,0.0,0.0
06/06/2023,01:03:39,0.000,0.0,0.0,0.0
06/06/2023,01:04:38,0.001,0.0,0.0,0.0
06/06/2023,01:05:38,-0.000,0.0,0.0,0.0
06/06/2023,01:06:38,-0.000,0.0,0.0,0.0
06/06/2023,01:07:38,0.001,0.0,0.0,0.0
06/06/2023,01:08:38,-0.001,0.0,0.0,0.0
06/06/2023,01:09:38,0.000,0.0,0.0,0.0
06/06/2023,01:10:38,-0.000,0.0,0.0,0.0
06/06/2023,01:11:38,0.000,0.0,0.0,0.0
06/06/2023,01:12:39,0.000,0.0,0.0,0.0
06/06/2023,01:13:39,0.000,0.0,0.0,0.0
06/06/2023,01:14:38,0.000,0.0,0.0,0.0
06/06/2023,01:15:38,0.001,0.0,0.0,0.0
06/06/2023,01:16:38,0.001,0.0,0.0,0.0
06/06/2023,01:17:38,0.001,0.0,0.0,0.0
06/06/2023,01:18:38,0.000,0.0,0.0,0.0
06/06/2023,01:19:38,0.000,0.0,0.0,0.0
06/06/2023,01:20:38,-0.000,0.0,0.0,0.0
06/06/2023,01:21:38,-0.000,0.0,0.0,0.0
06/06/2023,01:22:38,0.000,0.0,0.0,0.0
06/06/2023,01:23:38,0.000,0.0,0.0,0.0
06/06/2023,01:24:38,0.001,0.0,0.0,0.0
06/06/2023,01:25:39,0.000,0.0,0.0,0.0
06/06/2023,01:26:38,-0.001,0.0,0.0,0.0
06/06/2023,01:27:38,0.000,0.0,0.0,0.0
06/06/2023,01:28:38,0.000,0.0,0.0,0.0
06/06/2023,01:29:38,0.000,0.0,0.0,0.0
06/06/2023,01:30:39,0.000,0.0,0.0,0.0
06/06/2023,01:31:39,0.000,0.0,0.0,0.0
06/06/2023,01:32:38,-0.000,0.0,0.0,0.0
06/06/2023,01:33:38,0.000,0.0,0.0,0.0
06/06/2023,01:34:38,0.000,0.0,0.0,0.0
06/06/2023,01:35:38,0.000,0.0,0.0,0.0
06/06/2023,01:36:38,0.001,0.0,0.0,0.0
06/06/2023,01:37:38,0.001,0.0,0.0,0.0
06/06/2023,01:38:38,0.001,0.0,0.0,0.0
06/06/2023,01:39:38,-0.000,0.0,0.0,0.0
06/06/2023,01:40:38,0.000,0.0,0.0,0.0
06/06/2023,01:41:38,0.000,0.0,0.0,0.0
06/06/2023,01:42:38,0.000,0.0,0.0,0.0
06/06/2023,01:43:39,0.000,0.0,0.0,0.0
06/06/2023,01:44:38,0.000,0.0,0.0,0.0
06/06/2023,01:45:38,0.000,0.0,0.0,0.0
06/06/2023,01:46:38,-0.001,0.0,0.0,0.0
06/06/2023,01:47:39,0.000,0.0,0.0,0.0
06/06/2023,01:48:38,0.000,0.0,0.0,0.0
06/06/2023,01:49:38,0.000,0.0,0.0,0.0
06/06/2023,01:50:38,-0.001,0.0,0.0,0.0
06/06/2023,01:51:38,0.000,0.0,0.0,0.0
06/06/2023,01:52:39,0.001,0.0,0.0,0.0
06/06/2023,01:53:38,0.000,0.0,0.0,0.0
06/06/2023,01:54:38,-0.001,0.0,0.0,0.0
06/06/2023,01:55:38,0.000,0.0,0.0,0.0
06/06/2023,01:56:38,0.000,0.0,0.0,0.0
06/06/2023,01:57:38,0.001,0.0,0.0,0.0
06/06/2023,01:58:38,0.000,0.0,0.0,0.0
06/06/2023,01:59:38,0.000,0.0,0.0,0.0
06/06/2023,02:00:38,0.000,0.0,0.0,0.0
06/06/2023,02:01:38,0.001,0.0,0.0,0.0
06/06/2023,02:02:39,-0.000,0.0,0.0,0.0
06/06/2023,02:03:38,0.000,0.0,0.0,0.0
06/06/2023,02:04:38,0.001,0.0,0.0,0.0
06/06/2023,02:05:38,-0.000,0.0,0.0,0.0
06/06/2023,02:06:38,-0.001,0.0,0.0,0.0
06/06/2023,02:07:38,-0.001,0.0,0.0,0.0
06/06/2023,02:08:38,0.000,0.0,0.0,0.0
06/06/2023,02:09:38,0.000,0.0,0.0,0.0
06/06/2023,02:10:38,0.000,0.0,0.0,0.0
06/06/2023,02:11:38,-0.001,0.0,0.0,0.0
06/06/2023,02:12:39,0.001,0.0,0.0,0.0
06/06/2023,02:13:38,0.000,0.0,0.0,0.0
06/06/2023,02:14:38,-0.001,0.0,0.0,0.0
06/06/2023,02:15:38,0.000,0.0,0.0,0.0
06/06/2023,02:16:38,-0.001,0.0,0.0,0.0
06/06/2023,02:17:38,-0.000,0.0,0.0,0.0
06/06/2023,02:18:39,-0.000,0.0,0.0,0.0
06/06/2023,02:19:38,-0.000,0.0,0.0,0.0
06/06/2023,02:20:38,-0.000,0.0,0.0,0.0
06/06/2023,02:21:38,0.000,0.0,0.0,0.0
06/06/2023,02:22:38,0.000,0.0,0.0,0.0
06/06/2023,02:23:37,0.001,0.0,0.0,0.0
06/06/2023,02:25:00,-0.001,0.0,0.0,0.0
06/06/2023,02:26:39,0.000,0.0,0.0,0.0
06/06/2023,02:27:38,0.001,0.0,0.0,0.0
06/06/2023,02:28:38,0.000,0.0,0.0,0.0
06/06/2023,02:29:39,0.000,0.0,0.0,0.0
06/06/2023,02:30:38,0.001,0.0,0.0,0.0
06/06/2023,02:31:38,0.000,0.0,0.0,0.0
06/06/2023,02:32:38,0.000,0.0,0.0,0.0
06/06/2023,02:33:38,0.000,0.0,0.0,0.0
06/06/2023,02:34:38,0.000,0.0,0.0,0.0
06/06/2023,02:35:38,0.000,0.0,0.0,0.0
06/06/2023,02:36:38,0.000,0.0,0.0,0.0
06/06/2023,02:37:38,-0.001,0.0,0.0,0.0
06/06/2023,02:38:38,0.001,0.0,0.0,0.0
06/06/2023,02:39:39,0.000,0.0,0.0,0.0
06/06/2023,02:40:38,0.000,0.0,0.0,0.0
06/06/2023,02:41:38,0.000,0.0,0.0,0.0
06/06/2023,02:42:38,0.000,0.0,0.0,0.0
06/06/2023,02:43:38,0.000,0.0,0.0,0.0
06/06/2023,02:44:39,0.000,0.0,0.0,0.0
06/06/2023,02:45:38,0.000,0.0,0.0,0.0
06/06/2023,02:46:39,-0.000,0.0,0.0,0.0
06/06/2023,02:47:38,-0.001,0.0,0.0,0.0
06/06/2023,02:48:39,-0.001,0.0,0.0,0.0
06/06/2023,02:49:38,0.000,0.0,0.0,0.0
06/06/2023,02:50:38,0.000,0.0,0.0,0.0
06/06/2023,02:51:38,0.001,0.0,0.0,0.0
06/06/2023,02:52:39,-0.000,0.0,0.0,0.0
06/06/2023,02:53:39,0.001,0.0,0.0,0.0
06/06/2023,02:54:38,0.000,0.0,0.0,0.0
06/06/2023,02:55:38,0.000,0.0,0.0,0.0
06/06/2023,02:56:38,0.000,0.0,0.0,0.0
06/06/2023,02:57:39,0.001,0.0,0.0,0.0
06/06/2023,02:58:39,0.001,0.0,0.0,0.0
06/06/2023,02:59:38,0.000,0.0,0.0,0.0
06/06/2023,03:00:38,0.001,0.0,0.0,0.0
06/06/2023,03:01:38,0.002,0.0,0.0,0.0
06/06/2023,03:02:39,0.000,0.0,0.0,0.0
06/06/2023,03:03:38,0.001,0.0,0.0,0.0
06/06/2023,03:04:39,-0.000,0.0,0.0,0.0
06/06/2023,03:05:38,0.000,0.0,0.0,0.0
06/06/2023,03:06:39,0.001,0.0,0.0,0.0
06/06/2023,03:07:38,0.000,0.0,0.0,0.0
06/06/2023,03:08:38,0.000,0.0,0.0,0.0
06/06/2023,03:09:39,0.000,0.0,0.0,0.0
06/06/2023,03:10:38,0.001,0.0,0.0,0.0
06/06/2023,03:11:38,-0.001,0.0,0.0,0.0
06/06/2023,03:12:38,0.001,0.0,0.0,0.0
06/06/2023,03:13:38,0.000,0.0,0.0,0.0
06/06/2023,03:14:38,-0.000,0.0,0.0,0.0
06/06/2023,03:15:38,0.000,0.0,0.0,0.0
06/06/2023,03:16:39,0.000,0.0,0.0,0.0
06/06/2023,03:17:38,0.000,0.0,0.0,0.0
06/06/2023,03:18:38,0.000,0.0,0.0,0.0
06/06/2023,03:19:39,0.000,0.0,0.0,0.0
06/06/2023,03:20:38,0.000,0.0,0.0,0.0
06/06/2023,03:21:44,-0.001,0.0,0.0,0.0
06/06/2023,03:22:39,0.000,0.0,0.0,0.0
06/06/2023,03:23:39,-0.000,0.0,0.0,0.0
06/06/2023,03:24:39,-0.001,0.0,0.0,0.0
06/06/2023,03:25:38,-0.000,0.0,0.0,0.0
06/06/2023,03:26:38,0.000,0.0,0.0,0.0
06/06/2023,03:27:38,-0.001,0.0,0.0,0.0
06/06/2023,03:28:38,-0.000,0.0,0.0,0.0
06/06/2023,03:29:39,0.000,0.0,0.0,0.0
06/06/2023,03:30:38,0.001,0.0,0.0,0.0
06/06/2023,03:31:38,0.000,0.0,0.0,0.0
06/06/2023,03:32:38,-0.000,0.0,0.0,0.0
06/06/2023,03:33:38,0.000,0.0,0.0,0.0
06/06/2023,03:34:38,0.001,0.0,0.0,0.0
06/06/2023,03:35:38,0.000,0.0,0.0,0.0
06/06/2023,03:36:39,0.000,0.0,0.0,0.0
06/06/2023,03:37:38,0.000,0.0,0.0,0.0
06/06/2023,03:38:38,0.000,0.0,0.0,0.0
06/06/2023,03:39:38,0.000,0.0,0.0,0.0
06/06/2023,03:40:38,0.000,0.0,0.0,0.0
06/06/2023,03:41:38,-0.000,0.0,0.0,0.0
06/06/2023,03:42:39,0.001,0.0,0.0,0.0
06/06/2023,03:43:39,0.000,0.0,0.0,0.0
06/06/2023,03:44:39,0.000,0.0,0.0,0.0
06/06/2023,03:45:38,0.000,0.0,0.0,0.0
06/06/2023,03:46:38,0.001,0.0,0.0,0.0
06/06/2023,03:47:38,0.001,0.0,0.0,0.0
06/06/2023,03:48:38,-0.001,0.0,0.0,0.0
06/06/2023,03:49:39,0.001,0.0,0.0,0.0
06/06/2023,03:50:38,0.000,0.0,0.0,0.0
06/06/2023,03:51:38,0.002,0.0,0.0,0.0
06/06/2023,03:52:38,0.001,0.0,0.0,0.0
06/06/2023,03:53:38,0.001,0.0,0.0,0.0
06/06/2023,03:54:38,0.001,0.0,0.0,0.0
06/06/2023,03:55:39,0.002,0.0,0.0,0.0
06/06/2023,03:56:39,0.001,0.0,0.0,0.0
06/06/2023,03:57:38,0.001,0.0,0.0,0.0
06/06/2023,03:58:38,0.000,0.0,0.0,0.0
06/06/2023,03:59:38,0.001,0.0,0.0,0.0
06/06/2023,04:00:38,0.001,0.0,0.0,0.0
06/06/2023,04:01:39,0.002,0.0,0.0,0.0
06/06/2023,04:02:38,0.001,0.0,0.0,0.0
06/06/2023,04:03:38,0.001,0.0,0.0,0.0
06/06/2023,04:05:01,0.001,0.0,0.0,0.0
06/06/2023,04:06:39,0.002,0.0,0.0,0.0
06/06/2023,04:07:38,0.002,0.0,0.0,0.0
06/06/2023,04:08:38,0.002,0.0,0.0,0.0
06/06/2023,04:09:39,0.002,0.0,0.0,0.0
06/06/2023,04:10:38,0.002,0.0,0.0,0.0
06/06/2023,04:11:37,0.002,0.0,0.0,0.0
06/06/2023,04:12:38,0.002,0.0,0.0,0.0
06/06/2023,04:13:38,0.002,0.0,0.0,0.0
06/06/2023,04:14:38,0.002,0.0,0.0,0.0
06/06/2023,04:15:39,0.002,0.0,0.0,0.0
06/06/2023,04:16:38,0.002,0.0,0.0,0.0
06/06/2023,04:17:39,0.002,0.0,0.0,0.0
06/06/2023,04:18:38,0.002,0.0,0.0,0.0
06/06/2023,04:19:38,0.002,0.0,0.0,0.0
06/06/2023,04:20:39,0.002,0.0,0.0,0.0
06/06/2023,04:21:38,0.003,0.0,0.0,0.0
06/06/2023,04:22:39,0.003,0.0,0.0,0.0
06/06/2023,04:23:39,0.003,0.0,0.0,0.0
06/06/2023,04:24:38,0.003,0.0,0.0,0.0
06/06/2023,04:25:39,0.002,0.0,0.0,0.0
06/06/2023,04:26:38,0.002,0.0,0.0,0.0
06/06/2023,04:27:38,0.004,0.0,0.0,0.0
06/06/2023,04:28:39,0.003,0.0,0.0,0.0
06/06/2023,04:29:39,0.004,0.0,0.0,0.0
06/06/2023,04:30:38,0.004,0.0,0.0,0.0
06/06/2023,04:31:39,0.003,0.0,0.0,0.0
06/06/2023,04:32:38,0.004,0.0,0.0,0.0
06/06/2023,04:33:38,0.004,0.0,0.0,0.0
06/06/2023,04:34:38,0.004,0.0,0.0,0.0
06/06/2023,04:35:38,0.004,0.0,0.0,0.0
06/06/2023,04:36:38,0.004,0.0,0.0,0.0
06/06/2023,04:37:38,0.005,0.0,0.0,0.0
06/06/2023,04:38:38,0.004,0.0,0.0,0.0
06/06/2023,04:39:38,0.006,0.0,0.0,0.0
06/06/2023,04:40:39,0.005,0.0,0.0,0.0
06/06/2023,04:41:38,0.005,0.0,0.0,0.0
06/06/2023,04:42:39,0.006,0.0,0.0,0.0
06/06/2023,04:43:39,0.005,0.0,0.0,0.0
06/06/2023,04:44:38,0.005,0.0,0.0,0.0
06/06/2023,04:45:38,0.006,0.0,0.0,0.0
06/06/2023,04:46:38,0.007,0.0,0.0,0.0
06/06/2023,04:47:39,0.006,0.0,0.0,0.0
06/06/2023,04:48:39,0.007,0.0,0.0,0.0
06/06/2023,04:49:38,0.006,0.0,0.0,0.0
06/06/2023,04:50:38,0.007,0.0,0.0,0.0
06/06/2023,04:51:39,0.007,0.0,0.001,0.001
06/06/2023,04:52:38,0.008,0.0,0.001,0.0
06/06/2023,04:53:39,0.009,0.0,0.001,0.0
06/06/2023,04:54:38,0.009,0.0,0.001,0.0
06/06/2023,04:55:38,0.008,0.0,0.001,0.0
06/06/2023,04:56:38,0.009,0.0,0.001,0.0
06/06/2023,04:57:38,0.008,0.0,0.001,0.0
06/06/2023,04:58:39,0.008,0.0,0.002,0.001
06/06/2023,04:59:39,0.009,0.0,0.002,0.0
06/06/2023,05:00:39,0.009,0.0,0.002,0.0
06/06/2023,05:01:38,0.010,0.0,0.002,0.0
06/06/2023,05:02:39,0.011,0.0,0.002,0.0
06/06/2023,05:03:38,0.011,0.0,0.002,0.0
06/06/2023,05:04:38,0.012,0.0,0.003,0.001
06/06/2023,05:05:38,0.012,0.0,0.003,0.0
06/06/2023,05:06:38,0.012,0.0,0.003,0.0
06/06/2023,05:07:39,0.012,0.0,0.003,0.0
06/06/2023,05:08:38,0.013,0.0,0.003,0.0
06/06/2023,05:09:39,0.012,0.0,0.004,0.001
06/06/2023,05:10:39,0.012,0.0,0.004,0.0
06/06/2023,05:11:38,0.013,0.0,0.004,0.0
06/06/2023,05:12:39,0.014,0.0,0.004,0.0
06/06/2023,05:13:38,0.013,0.0,0.004,0.0
06/06/2023,05:14:39,0.013,0.0,0.005,0.001
06/06/2023,05:15:39,0.015,0.0,0.005,0.0
06/06/2023,05:16:38,0.015,0.0,0.005,0.0
06/06/2023,05:17:38,0.014,0.0,0.005,0.0
06/06/2023,05:18:38,0.016,0.0,0.006,0.001
06/06/2023,05:19:39,0.016,0.0,0.006,0.0
06/06/2023,05:20:38,0.016,0.0,0.006,0.0
06/06/2023,05:21:39,0.017,0.0,0.006,0.0
06/06/2023,05:22:39,0.016,0.0,0.007,0.001
06/06/2023,05:23:39,0.017,0.0,0.007,0.0
06/06/2023,05:24:39,0.017,0.0,0.007,0.0
06/06/2023,05:25:38,0.016,0.0,0.008,0.001
06/06/2023,05:26:39,0.017,0.0,0.008,0.0
06/06/2023,05:27:39,0.018,0.0,0.008,0.0
06/06/2023,05:28:38,0.018,0.0,0.008,0.0
06/06/2023,05:29:38,0.018,0.0,0.009,0.001
06/06/2023,05:30:39,0.018,0.0,0.009,0.0
06/06/2023,05:31:38,0.018,0.0,0.009,0.0
06/06/2023,05:32:39,0.019,0.0,0.01,0.001
06/06/2023,05:33:38,0.019,0.0,0.01,0.0
06/06/2023,05:34:39,0.019,0.0,0.01,0.0
06/06/2023,05:35:38,0.020,0.0,0.011,0.001
06/06/2023,05:36:38,0.020,0.0,0.011,0.0
06/06/2023,05:37:39,0.020,0.0,0.011,0.0
06/06/2023,05:38:38,0.021,0.0,0.012,0.001
06/06/2023,05:39:38,0.021,0.0,0.012,0.0
06/06/2023,05:40:38,0.022,0.0,0.012,0.0
06/06/2023,05:41:38,0.022,0.0,0.013,0.001
06/06/2023,05:42:39,0.022,0.0,0.013,0.0
06/06/2023,05:43:38,0.022,0.0,0.013,0.0
06/06/2023,05:44:39,0.022,0.0,0.014,0.001
06/06/2023,05:45:39,0.023,0.0,0.014,0.0
06/06/2023,05:46:38,0.023,0.0,0.015,0.001
06/06/2023,05:47:38,0.023,0.0,0.015,0.0
06/06/2023,05:48:38,0.024,0.0,0.015,0.0
06/06/2023,05:49:39,0.024,0.0,0.016,0.001
06/06/2023,05:50:38,0.023,0.0,0.016,0.0
06/06/2023,05:51:39,0.025,0.0,0.016,0.0
06/06/2023,05:52:38,0.025,0.0,0.017,0.001
06/06/2023,05:53:39,0.026,0.0,0.017,0.0
06/06/2023,05:54:38,0.026,0.0,0.018,0.001
06/06/2023,05:55:38,0.027,0.0,0.018,0.0
06/06/2023,05:56:38,0.028,0.0,0.019,0.001
06/06/2023,05:57:39,0.029,0.0,0.019,0.0
06/06/2023,05:58:38,0.029,0.0,0.02,0.001
06/06/2023,05:59:39,0.031,0.0,0.02,0.0
06/06/2023,06:00:38,0.030,0.0,0.021,0.001
06/06/2023,06:01:39,0.030,0.0,0.021,0.0
06/06/2023,06:02:39,0.032,0.0,0.022,0.001
06/06/2023,06:03:38,0.032,0.0,0.022,0.0
06/06/2023,06:04:39,0.033,0.0,0.023,0.001
06/06/2023,06:05:38,0.036,0.0,0.023,0.0
06/06/2023,06:06:39,0.038,0.0,0.024,0.001
06/06/2023,06:07:39,0.040,0.0,0.025,0.001
06/06/2023,06:08:39,0.042,0.0,0.025,0.0
06/06/2023,06:09:39,0.041,0.0,0.026,0.001
06/06/2023,06:10:39,0.043,0.0,0.027,0.001
06/06/2023,06:11:38,0.042,0.0,0.027,0.0
06/06/2023,06:12:39,0.042,0.0,0.028,0.001
06/06/2023,06:13:38,0.041,0.0,0.029,0.001
06/06/2023,06:14:39,0.041,0.0,0.029,0.0
06/06/2023,06:15:38,0.043,0.0,0.03,0.001
06/06/2023,06:16:38,0.045,0.0,0.031,0.001
06/06/2023,06:17:39,0.046,0.0,0.032,0.001
06/06/2023,06:18:39,0.046,0.0,0.032,0.0
06/06/2023,06:19:38,0.048,0.0,0.033,0.001
06/06/2023,06:20:38,0.050,0.0,0.034,0.001
06/06/2023,06:21:38,0.051,0.0,0.035,0.001
06/06/2023,06:22:38,0.050,0.0,0.036,0.001
06/06/2023,06:23:39,0.051,0.0,0.036,0.0
06/06/2023,06:24:39,0.051,0.0,0.037,0.001
06/06/2023,06:25:39,0.050,0.0,0.038,0.001
06/06/2023,06:26:39,0.051,0.0,0.039,0.001
06/06/2023,06:27:39,0.052,0.0,0.04,0.001
06/06/2023,06:28:38,0.051,0.0,0.041,0.001
06/06/2023,06:29:39,0.050,0.0,0.042,0.001
06/06/2023,06:30:39,0.053,0.0,0.042,0.0
06/06/2023,06:31:39,0.054,0.0,0.043,0.001
06/06/2023,06:32:38,0.055,0.0,0.044,0.001
06/06/2023,06:33:38,0.055,0.0,0.045,0.001
06/06/2023,06:34:38,0.058,0.0,0.046,0.001
06/06/2023,06:35:38,0.060,0.0,0.047,0.001
06/06/2023,06:36:38,0.064,0.0,0.048,0.001
06/06/2023,06:37:38,0.067,0.0,0.049,0.001
06/06/2023,06:38:39,0.067,0.0,0.05,0.001
06/06/2023,06:39:38,0.066,0.0,0.051,0.001
06/06/2023,06:40:39,0.067,0.0,0.053,0.002
06/06/2023,06:41:39,0.070,0.0,0.054,0.001
06/06/2023,06:42:39,0.073,0.0,0.055,0.001
06/06/2023,06:43:39,0.070,0.0,0.056,0.001
06/06/2023,06:44:38,0.070,0.0,0.057,0.001
06/06/2023,06:45:39,0.072,0.0,0.058,0.001
06/06/2023,06:46:39,0.072,0.0,0.06,0.002
06/06/2023,06:47:38,0.074,0.0,0.061,0.001
06/06/2023,06:48:38,0.075,0.0,0.062,0.001
06/06/2023,06:49:38,0.077,0.0,0.063,0.001
06/06/2023,06:50:38,0.079,0.0,0.065,0.002
06/06/2023,06:51:39,0.078,0.0,0.066,0.001
06/06/2023,06:52:38,0.077,0.0,0.067,0.001
06/06/2023,06:53:40,0.078,0.0,0.069,0.002
06/06/2023,06:54:39,0.080,0.0,0.07,0.001
06/06/2023,06:55:39,0.081,0.0,0.071,0.001
06/06/2023,06:56:40,0.082,0.0,0.073,0.002
06/06/2023,06:57:39,0.084,0.0,0.074,0.001
06/06/2023,06:58:39,0.082,0.0,0.075,0.001
06/06/2023,06:59:39,0.083,0.0,0.077,0.002
06/06/2023,07:00:38,0.084,0.0,0.078,0.001
06/06/2023,07:01:39,0.084,0.0,0.08,0.002
06/06/2023,07:02:39,0.089,0.0,0.081,0.001
06/06/2023,07:03:38,0.093,0.0,0.082,0.001
06/06/2023,07:04:39,0.096,0.0,0.084,0.002
06/06/2023,07:05:38,0.098,0.0,0.086,0.002
06/06/2023,07:06:39,0.100,0.0,0.087,0.001
06/06/2023,07:07:39,0.103,0.0,0.089,0.002
06/06/2023,07:08:38,0.104,0.0,0.091,0.002
06/06/2023,07:09:39,0.108,0.0,0.093,0.002
06/06/2023,07:10:39,0.107,0.0,0.094,0.001
06/06/2023,07:11:40,0.104,0.0,0.096,0.002
06/06/2023,07:12:39,0.101,0.0,0.098,0.002
06/06/2023,07:13:38,0.101,0.0,0.099,0.001
06/06/2023,07:14:39,0.101,0.0,0.101,0.002
06/06/2023,07:15:39,0.099,0.0,0.103,0.002
06/06/2023,07:16:39,0.098,0.0,0.104,0.001
06/06/2023,07:17:38,0.099,0.0,0.106,0.002
06/06/2023,07:18:39,0.101,0.0,0.108,0.002
06/06/2023,07:19:38,0.106,0.0,0.109,0.001
06/06/2023,07:20:38,0.111,0.0,0.111,0.002
06/06/2023,07:21:38,0.114,0.0,0.113,0.002
06/06/2023,07:22:39,0.116,0.0,0.115,0.002
06/06/2023,07:23:38,0.114,0.0,0.117,0.002
06/06/2023,07:24:39,0.115,0.0,0.119,0.002
06/06/2023,07:25:38,0.116,0.0,0.121,0.002
06/06/2023,07:26:39,0.116,0.0,0.123,0.002
06/06/2023,07:27:38,0.118,0.0,0.125,0.002
06/06/2023,07:28:39,0.120,0.0,0.127,0.002
06/06/2023,07:29:39,0.123,0.0,0.129,0.002
06/06/2023,07:30:38,0.128,0.0,0.131,0.002
06/06/2023,07:31:38,0.127,0.0,0.133,0.002
06/06/2023,07:32:39,0.128,0.0,0.135,0.002
06/06/2023,07:33:40,0.126,0.0,0.137,0.002
06/06/2023,07:34:38,0.126,0.0,0.139,0.002
06/06/2023,07:35:39,0.126,0.0,0.141,0.002
06/06/2023,07:36:39,0.128,0.0,0.144,0.003
06/06/2023,07:37:39,0.132,0.0,0.146,0.002
06/06/2023,07:38:40,0.135,0.0,0.148,0.002
06/06/2023,07:39:39,0.142,0.0,0.15,0.002
06/06/2023,07:40:39,0.140,0.0,0.153,0.003
06/06/2023,07:41:39,0.139,0.0,0.155,0.002
06/06/2023,07:42:38,0.138,0.0,0.157,0.002
06/06/2023,07:43:39,0.138,0.0,0.159,0.002
06/06/2023,07:44:39,0.144,0.0,0.162,0.003
06/06/2023,07:45:39,0.148,0.0,0.164,0.002
06/06/2023,07:46:38,0.147,0.0,0.167,0.003
06/06/2023,07:47:39,0.148,0.0,0.169,0.002
06/06/2023,07:48:39,0.147,0.0,0.172,0.003
06/06/2023,07:49:38,0.148,0.0,0.174,0.002
06/06/2023,07:50:39,0.148,0.0,0.177,0.003
06/06/2023,07:51:39,0.150,0.0,0.179,0.002
06/06/2023,07:52:39,0.151,0.0,0.182,0.003
06/06/2023,07:53:38,0.151,0.0,0.184,0.002
06/06/2023,07:54:38,0.151,0.0,0.187,0.003
06/06/2023,07:55:39,0.152,0.0,0.189,0.002
06/06/2023,07:56:39,0.151,0.0,0.192,0.003
06/06/2023,07:57:39,0.152,0.0,0.194,0.002
06/06/2023,07:58:38,0.154,0.0,0.197,0.003
06/06/2023,07:59:39,0.153,0.0,0.199,0.002
06/06/2023,08:00:39,0.155,0.0,0.202,0.003
06/06/2023,08:01:39,0.157,0.0,0.204,0.002
06/06/2023,08:02:39,0.157,0.0,0.207,0.003
06/06/2023,08:03:38,0.159,0.0,0.21,0.003
06/06/2023,08:04:39,0.159,0.0,0.212,0.002
06/06/2023,08:05:38,0.162,0.0,0.215,0.003
06/06/2023,08:06:39,0.164,0.0,0.218,0.003
06/06/2023,08:07:38,0.168,0.0,0.22,0.002
06/06/2023,08:08:39,0.175,0.0,0.223,0.003
06/06/2023,08:09:39,0.176,0.0,0.226,0.003
06/06/2023,08:10:39,0.175,0.0,0.229,0.003
06/06/2023,08:11:38,0.177,0.0,0.232,0.003
06/06/2023,08:12:39,0.178,0.0,0.235,0.003
06/06/2023,08:13:39,0.174,0.0,0.238,0.003
06/06/2023,08:14:39,0.176,0.0,0.241,0.003
06/06/2023,08:15:39,0.178,0.0,0.244,0.003
06/06/2023,08:16:38,0.192,0.0,0.247,0.003
06/06/2023,08:17:38,0.210,0.0,0.25,0.003
06/06/2023,08:18:39,0.219,1.0,0.254,0.004
06/06/2023,08:19:39,0.226,1.0,0.258,0.004
06/06/2023,08:20:39,0.228,1.0,0.262,0.004
06/06/2023,08:21:39,0.227,1.0,0.265,0.003
06/06/2023,08:22:38,0.222,1.0,0.269,0.004
06/06/2023,08:23:39,0.213,0.0,0.273,0.004
06/06/2023,08:24:39,0.203,0.0,0.276,0.003
06/06/2023,08:25:39,0.203,0.0,0.279,0.003
06/06/2023,08:26:38,0.204,0.0,0.283,0.004
06/06/2023,08:27:39,0.205,0.0,0.286,0.003
06/06/2023,08:28:39,0.204,0.0,0.29,0.004
06/06/2023,08:29:39,0.206,0.0,0.293,0.003
06/06/2023,08:30:39,0.207,0.0,0.297,0.004
06/06/2023,08:31:39,0.204,0.0,0.3,0.003
06/06/2023,08:32:38,0.205,0.0,0.303,0.003
06/06/2023,08:33:39,0.208,0.0,0.307,0.004
06/06/2023,08:34:39,0.214,0.0,0.31,0.003
06/06/2023,08:35:39,0.220,1.0,0.314,0.004
06/06/2023,08:36:39,0.221,1.0,0.318,0.004
06/06/2023,08:37:39,0.219,1.0,0.321,0.003
06/06/2023,08:38:39,0.217,0.0,0.325,0.004
06/06/2023,08:39:39,0.218,1.0,0.328,0.003
06/06/2023,08:40:39,0.221,1.0,0.332,0.004
06/06/2023,08:41:39,0.221,1.0,0.336,0.004
06/06/2023,08:42:39,0.235,1.0,0.34,0.004
06/06/2023,08:43:38,0.264,1.0,0.344,0.004
06/06/2023,08:44:38,0.282,1.0,0.348,0.004
06/06/2023,08:45:39,0.276,1.0,0.353,0.005
06/06/2023,08:46:39,0.269,1.0,0.357,0.004
06/06/2023,08:47:38,0.272,1.0,0.362,0.005
06/06/2023,08:48:38,0.285,1.0,0.367,0.005
06/06/2023,08:49:38,0.307,1.0,0.372,0.005
06/06/2023,08:50:39,0.319,1.0,0.377,0.005
06/06/2023,08:51:39,0.318,1.0,0.382,0.005
06/06/2023,08:52:38,0.316,1.0,0.387,0.005
06/06/2023,08:53:38,0.318,1.0,0.393,0.006
06/06/2023,08:54:39,0.321,1.0,0.398,0.005
06/06/2023,08:55:39,0.328,1.0,0.403,0.005
06/06/2023,08:56:39,0.333,1.0,0.409,0.006
06/06/2023,08:57:39,0.336,1.0,0.414,0.005
06/06/2023,08:58:39,0.334,1.0,0.42,0.006
06/06/2023,08:59:39,0.345,1.0,0.426,0.006
06/06/2023,09:00:39,0.346,1.0,0.431,0.005
06/06/2023,09:01:39,0.334,1.0,0.437,0.006
06/06/2023,09:02:39,0.325,1.0,0.443,0.006
06/06/2023,09:03:38,0.333,1.0,0.448,0.005
06/06/2023,09:04:39,0.363,1.0,0.454,0.006
06/06/2023,09:05:39,0.391,1.0,0.46,0.006
06/06/2023,09:06:39,0.399,1.0,0.467,0.007
06/06/2023,09:07:39,0.384,1.0,0.473,0.006
06/06/2023,09:08:38,0.362,1.0,0.48,0.007
06/06/2023,09:09:39,0.359,1.0,0.486,0.006
06/06/2023,09:10:39,0.354,1.0,0.491,0.005
06/06/2023,09:11:39,0.354,1.0,0.497,0.006
06/06/2023,09:12:39,0.347,1.0,0.503,0.006
06/06/2023,09:13:38,0.341,1.0,0.509,0.006
06/06/2023,09:14:39,0.331,1.0,0.515,0.006
06/06/2023,09:15:39,0.322,1.0,0.52,0.005
06/06/2023,09:16:38,0.316,1.0,0.525,0.005
06/06/2023,09:17:39,0.316,1.0,0.531,0.006
06/06/2023,09:18:39,0.315,1.0,0.536,0.005
06/06/2023,09:19:39,0.316,1.0,0.541,0.005
06/06/2023,09:20:39,0.319,1.0,0.546,0.005
06/06/2023,09:21:39,0.322,1.0,0.552,0.006
06/06/2023,09:22:38,0.336,1.0,0.557,0.005
06/06/2023,09:23:39,0.365,1.0,0.563,0.006
06/06/2023,09:24:39,0.398,1.0,0.57,0.007
06/06/2023,09:25:39,0.401,1.0,0.576,0.006
06/06/2023,09:26:38,0.399,1.0,0.583,0.007
06/06/2023,09:27:39,0.414,1.0,0.589,0.006
06/06/2023,09:28:39,0.431,1.0,0.597,0.008
06/06/2023,09:29:39,0.419,1.0,0.604,0.007
06/06/2023,09:30:39,0.382,1.0,0.61,0.006
06/06/2023,09:31:40,0.355,1.0,0.617,0.007
06/06/2023,09:32:39,0.341,1.0,0.622,0.005
06/06/2023,09:33:39,0.334,1.0,0.628,0.006
06/06/2023,09:34:39,0.338,1.0,0.633,0.005
06/06/2023,09:35:39,0.348,1.0,0.639,0.006
06/06/2023,09:36:40,0.349,1.0,0.645,0.006
06/06/2023,09:37:39,0.344,1.0,0.651,0.006
06/06/2023,09:38:39,0.342,1.0,0.656,0.005
06/06/2023,09:39:39,0.340,1.0,0.662,0.006
06/06/2023,09:40:39,0.328,1.0,0.668,0.006
06/06/2023,09:41:38,0.322,1.0,0.673,0.005
06/06/2023,09:42:39,0.318,1.0,0.678,0.005
06/06/2023,09:43:39,0.309,1.0,0.684,0.006
06/06/2023,09:44:39,0.305,1.0,0.689,0.005
06/06/2023,09:45:39,0.319,1.0,0.694,0.005
06/06/2023,09:46:39,0.351,1.0,0.7,0.006
06/06/2023,09:47:38,0.367,1.0,0.706,0.006
06/06/2023,09:49:07,0.381,1.0,0.715,0.009
06/06/2023,09:50:39,0.397,1.0,0.725,0.01
06/06/2023,09:51:38,0.375,1.0,0.731,0.006
06/06/2023,09:52:39,0.344,1.0,0.737,0.006
06/06/2023,09:53:39,0.326,1.0,0.743,0.006
06/06/2023,09:55:08,0.303,1.0,0.751,0.008
06/06/2023,09:56:39,0.303,1.0,0.758,0.007
06/06/2023,09:57:39,0.353,1.0,0.763,0.005
06/06/2023,09:58:38,0.384,1.0,0.77,0.007
06/06/2023,09:59:39,0.412,1.0,0.776,0.006
06/06/2023,10:00:39,0.446,1.0,0.783,0.007
06/06/2023,10:01:39,0.490,1.0,0.791,0.008
06/06/2023,10:02:39,0.537,1.0,0.8,0.009
06/06/2023,10:03:39,0.569,1.0,0.809,0.009
06/06/2023,10:04:39,0.591,1.0,0.819,0.01